When you browse on this site, cookies collect data to enhance your experience and personalize the content and advertising you see.
Visit our Privacy Policy to learn more. By continuing to use the site, you agree to this use of cookies and data.
  • In Hungary
  • List of Countries
  • For 7 days
  • Water Temperature
  • Satellite Maps
  • Weather Map
  • News
  • Weather Widgets
  • user-avatar
    Login

    Hourly Weather Moorhead

    Today, 21 July, Sunday

    Time Temperature Precipitation Wind Pressure Humidity
    00:00 +16°C° 0 mm 2 mps 738 mmHg 83%
    01:00 +16°C° 0 mm 2 mps 738 mmHg 86%
    02:00 +15°C° 0 mm 2 mps 738 mmHg 89%
    03:00 +14°C° 0 mm 2 mps 738 mmHg 91%
    04:00 +15°C° 0 mm 2 mps 739 mmHg 92%
    05:00 +15°C° 0 mm 2 mps 739 mmHg 93%
    06:00 +14°C° 0 mm 3 mps 739 mmHg 97%
    07:00 +17°C° 0 mm 3 mps 740 mmHg 91%
    08:00 +18°C° 0 mm 3 mps 740 mmHg 85%
    09:00 +20°C° 0 mm 2 mps 740 mmHg 80%
    10:00 +21°C° 0 mm 3 mps 740 mmHg 76%
    11:00 +22°C° 0 mm 3 mps 741 mmHg 71%
    12:00 +24°C° 0 mm 3 mps 741 mmHg 67%
    13:00 +24°C° 0.1 mm 3 mps 741 mmHg 66%
    14:00 +25°C° 0.1 mm 4 mps 741 mmHg 64%
    15:00 +25°C° 0.1 mm 4 mps 741 mmHg 62%
    16:00 +23°C° 0 mm 4 mps 741 mmHg 66%
    17:00 +23°C° 0 mm 4 mps 741 mmHg 69%
    18:00 +22°C° 0 mm 4 mps 741 mmHg 73%
    19:00 +21°C° 0.1 mm 3 mps 741 mmHg 74%
    20:00 +19°C° 0.1 mm 3 mps 741 mmHg 76%
    21:00 +17°C° 0.1 mm 2 mps 741 mmHg 77%
    22:00 +16°C° 0 mm 2 mps 742 mmHg 79%
    23:00 +15°C° 0 mm 2 mps 742 mmHg 80%

    Tomorrow, 22 July, Monday

    Time Temperature Precipitation Wind Pressure Humidity
    00:00 +14°C° 0 mm 2 mps 742 mmHg 81%
    01:00 +14°C° 0 mm 2 mps 742 mmHg 84%
    02:00 +14°C° 0 mm 2 mps 743 mmHg 87%
    03:00 +13°C° 0 mm 2 mps 743 mmHg 91%
    04:00 +13°C° 0 mm 2 mps 743 mmHg 91%
    05:00 +13°C° 0 mm 1 mps 743 mmHg 92%
    06:00 +14°C° 0 mm 1 mps 744 mmHg 92%
    07:00 +15°C° 0 mm 1 mps 744 mmHg 86%
    08:00 +17°C° 0 mm 2 mps 744 mmHg 80%
    09:00 +19°C° 0 mm 2 mps 744 mmHg 74%
    10:00 +21°C° 0 mm 2 mps 744 mmHg 69%
    11:00 +23°C° 0 mm 2 mps 744 mmHg 63%
    12:00 +24°C° 0 mm 2 mps 744 mmHg 58%
    13:00 +24°C° 0 mm 2 mps 744 mmHg 57%
    14:00 +25°C° 0 mm 2 mps 744 mmHg 55%
    15:00 +25°C° 0 mm 2 mps 743 mmHg 54%
    16:00 +25°C° 0 mm 2 mps 743 mmHg 58%
    17:00 +25°C° 0 mm 2 mps 743 mmHg 61%
    18:00 +25°C° 0 mm 2 mps 743 mmHg 65%
    19:00 +23°C° 0 mm 1 mps 743 mmHg 69%
    20:00 +21°C° 0 mm 1 mps 743 mmHg 73%
    21:00 +16°C° 0 mm 0 mps 743 mmHg 77%
    22:00 +18°C° 0 mm 1 mps 743 mmHg 77%
    23:00 +18°C° 0 mm 1 mps 743 mmHg 77%

    Day after tomorrow, 23 July, Tuesday

    Time Temperature Precipitation Wind Pressure Humidity
    00:00 +16°C° 0 mm 1 mps 743 mmHg 77%
    01:00 +16°C° 0 mm 1 mps 743 mmHg 80%
    02:00 +15°C° 0 mm 2 mps 743 mmHg 84%
    03:00 +15°C° 0 mm 2 mps 743 mmHg 88%
    04:00 +15°C° 0 mm 1 mps 743 mmHg 89%
    05:00 +15°C° 0 mm 1 mps 743 mmHg 89%
    06:00 +16°C° 0 mm 1 mps 743 mmHg 89%
    07:00 +19°C° 0 mm 1 mps 743 mmHg 84%
    08:00 +21°C° 0 mm 1 mps 743 mmHg 78%
    09:00 +23°C° 0 mm 1 mps 743 mmHg 72%
    10:00 +24°C° 0 mm 1 mps 743 mmHg 67%
    11:00 +25°C° 0 mm 1 mps 743 mmHg 61%
    12:00 +27°C° 0 mm 1 mps 743 mmHg 56%
    13:00 +27°C° 0 mm 2 mps 742 mmHg 55%
    14:00 +27°C° 0 mm 2 mps 742 mmHg 54%
    15:00 +28°C° 0 mm 2 mps 742 mmHg 53%
    16:00 +27°C° 0 mm 2 mps 741 mmHg 57%
    17:00 +27°C° 0 mm 2 mps 741 mmHg 61%
    18:00 +27°C° 0 mm 1 mps 741 mmHg 66%
    19:00 +25°C° 0 mm 2 mps 740 mmHg 70%
    20:00 +23°C° 0 mm 2 mps 740 mmHg 74%
    21:00 +20°C° 0 mm 2 mps 740 mmHg 78%
    22:00 +19°C° 0 mm 3 mps 740 mmHg 79%
    23:00 +18°C° 0 mm 3 mps 740 mmHg 80%

    24 July, Wednesday

    Time Temperature Precipitation Wind Pressure Humidity
    00:00 +18°C° 0 mm 3 mps 740 mmHg 82%
    01:00 +17°C° 0 mm 3 mps 740 mmHg 85%
    02:00 +17°C° 0 mm 3 mps 740 mmHg 89%
    03:00 +16°C° 0 mm 3 mps 739 mmHg 92%
    04:00 +16°C° 0 mm 3 mps 739 mmHg 92%
    05:00 +16°C° 0 mm 3 mps 739 mmHg 93%
    06:00 +16°C° 0 mm 3 mps 739 mmHg 93%
    07:00 +18°C° 0 mm 3 mps 739 mmHg 88%
    08:00 +20°C° 0 mm 4 mps 739 mmHg 83%
    09:00 +23°C° 0 mm 4 mps 739 mmHg 79%
    10:00 +25°C° 0 mm 4 mps 738 mmHg 76%
    11:00 +26°C° 0 mm 5 mps 738 mmHg 73%
    12:00 +28°C° 0 mm 5 mps 737 mmHg 71%
    13:00 +28°C° 0.1 mm 5 mps 737 mmHg 69%
    14:00 +29°C° 0.1 mm 5 mps 737 mmHg 68%
    15:00 +29°C° 0.1 mm 6 mps 736 mmHg 66%
    16:00 +29°C° 0.1 mm 5 mps 736 mmHg 69%
    17:00 +28°C° 0.1 mm 5 mps 735 mmHg 72%
    18:00 +27°C° 0.1 mm 5 mps 735 mmHg 75%
    19:00 +26°C° 0 mm 5 mps 735 mmHg 78%
    20:00 +24°C° 0 mm 6 mps 735 mmHg 80%
    21:00 +22°C° 0 mm 6 mps 734 mmHg 83%
    22:00 +22°C° 0 mm 6 mps 734 mmHg 85%
    23:00 +22°C° 0 mm 6 mps 734 mmHg 87%

    25 July, Thursday

    Time Temperature Precipitation Wind Pressure Humidity
    00:00 +21°C° 0 mm 6 mps 733 mmHg 88%
    01:00 +21°C° 0 mm 6 mps 733 mmHg 89%
    02:00 +21°C° 0 mm 7 mps 732 mmHg 89%
    03:00 +21°C° 0 mm 7 mps 732 mmHg 89%
    04:00 +21°C° 0.1 mm 7 mps 732 mmHg 89%
    05:00 +21°C° 0.1 mm 7 mps 731 mmHg 89%
    06:00 +21°C° 0.1 mm 7 mps 731 mmHg 90%
    07:00 +21°C° 0.2 mm 7 mps 731 mmHg 87%
    08:00 +22°C° 0.2 mm 7 mps 731 mmHg 84%
    09:00 +23°C° 0.2 mm 7 mps 731 mmHg 81%
    10:00 +26°C° 0.1 mm 7 mps 731 mmHg 77%
    11:00 +27°C° 0.1 mm 6 mps 731 mmHg 73%
    12:00 +29°C° 0.1 mm 6 mps 731 mmHg 69%
    13:00 +29°C° 0 mm 6 mps 731 mmHg 67%
    14:00 +30°C° 0 mm 5 mps 731 mmHg 66%
    15:00 +30°C° 0 mm 4 mps 731 mmHg 65%
    16:00 +30°C° 0.1 mm 4 mps 731 mmHg 65%
    17:00 +29°C° 0.1 mm 3 mps 731 mmHg 65%
    18:00 +29°C° 0.1 mm 2 mps 731 mmHg 65%
    19:00 +27°C° 0 mm 2 mps 731 mmHg 68%
    20:00 +25°C° 0 mm 3 mps 731 mmHg 70%
    21:00 +22°C° 0 mm 3 mps 731 mmHg 72%
    22:00 +21°C° 0 mm 3 mps 732 mmHg 73%
    23:00 +21°C° 0 mm 3 mps 732 mmHg 74%

    26 July, Friday

    Time Temperature Precipitation Wind Pressure Humidity
    00:00 +20°C° 0 mm 3 mps 732 mmHg 75%
    01:00 +19°C° 0 mm 3 mps 732 mmHg 72%
    02:00 +19°C° 0 mm 3 mps 732 mmHg 69%
    03:00 +18°C° 0 mm 3 mps 732 mmHg 67%
    04:00 +18°C° 0 mm 3 mps 732 mmHg 67%
    05:00 +18°C° 0 mm 3 mps 732 mmHg 68%
    06:00 +17°C° 0 mm 4 mps 732 mmHg 68%
    07:00 +20°C° 0 mm 4 mps 732 mmHg 64%
    08:00 +22°C° 0 mm 5 mps 733 mmHg 60%
    09:00 +26°C° 0 mm 5 mps 733 mmHg 56%
    10:00 +27°C° 0 mm 6 mps 733 mmHg 53%
    11:00 +28°C° 0 mm 6 mps 733 mmHg 49%
    12:00 +30°C° 0 mm 7 mps 733 mmHg 45%
    13:00 +30°C° 0 mm 7 mps 733 mmHg 45%
    14:00 +32°C° 0 mm 7 mps 733 mmHg 46%
    15:00 +32°C° 0 mm 6 mps 733 mmHg 46%
    16:00 +32°C° 0 mm 5 mps 733 mmHg 50%
    17:00 +30°C° 0 mm 5 mps 733 mmHg 54%
    18:00 +30°C° 0 mm 4 mps 733 mmHg 57%
    19:00 +28°C° 0 mm 3 mps 733 mmHg 60%
    20:00 +26°C° 0 mm 2 mps 734 mmHg 62%
    21:00 +24°C° 0 mm 2 mps 734 mmHg 64%
    22:00 +23°C° 0 mm 2 mps 734 mmHg 66%
    23:00 +21°C° 0 mm 2 mps 734 mmHg 68%
    Show more